STARLINK-4672 (53592 NORAD) Tracking and Keplerian Element Data

This shows tracking and keplerian element data for the satellite.

Feedback or suggestion? Click here.




ElementValue
Catalog53592
NameSTARLINK-4672
Epoch Orbit130
Epoch Day324.91667824
Epoch Year2022
RAAN252.6755
Inclination53.2141
Eccentricity0.000139
Argument of Perigee82.1968
Mean Anonmoly262.2051
Mean Motion15.0884289
Decay Rate-0.00014111
L11 53592U 22104E 22324.91667824 -.00014111 00000+0 -87014-3 0 9991
L22 53592 53.2141 252.6755 0001390 82.1968 262.2051 15.08842890 1308



Live tracking and technical data element details for STARLINK-4672 (NORAD 53592). STARLINK-4672 can be tracked NOW for your location showing map with azimuth and elevation plus other details from your city location.







IsCatalogInMostPopularTable: catalog: 53592, numindb: 2
Update: records affected: 1



GetName: 53592 STARLINK-4672

Hit Count: updated at: Tue, 29 Nov 2022 02:03:50 GMT